| time (UTC) | temp F | wind direction | speed MPH | gust MPH | rain 1hr in | rain 24hr in | rain mn in | humidity % | barometer mb |
| 20260506034836 | 47 | 270 | 1.0 | 2.0 | 0.00 | 0.00 | 0.00 | 64 | 1015.2 |
| 20260506033835 | 47 | 270 | 0.0 | 0.0 | 0.00 | 0.00 | 0.00 | 63 | 1014.6 |
| 20260506032835 | 47 | 270 | 0.0 | 0.0 | 0.00 | 0.00 | 0.00 | 63 | 1014.2 |
| 20260506030005 | 47 | 270 | 0.0 | 0.0 | 0.00 | 0.00 | 0.00 | 61 | 1013.5 |
| 20260506025004 | 48 | 270 | 0.0 | 0.0 | 0.00 | 0.00 | 0.00 | 60 | 1013.2 |
| 20260506024004 | 48 | 270 | 0.0 | 0.0 | 0.00 | 0.00 | 0.00 | 59 | 1012.5 |
| 20260506023002 | 49 | 270 | 0.0 | 0.0 | 0.00 | 0.00 | 0.00 | 59 | 1012.2 |
| 20260506022001 | 49 | 270 | 0.0 | 0.0 | 0.00 | 0.00 | 0.00 | 59 | 1011.9 |
| 20260506021216 | 49 | 270 | 0.0 | 0.0 | 0.00 | 0.00 | 0.00 | 58 | 1011.9 |
| 20260506021000 | 49 | 270 | 0.0 | 0.0 | 0.00 | 0.00 | 0.00 | 58 | 1011.9 |
| 20260506015147 | 50 | 270 | 0.0 | 0.0 | 0.00 | 0.00 | 0.00 | 56 | 1011.9 |
| 20260506014146 | 51 | 315 | 0.0 | 3.0 | 0.00 | 0.00 | 0.00 | 54 | 1011.9 |
| 20260506012144 | 52 | 270 | 0.0 | 0.0 | 0.00 | 0.00 | 0.00 | 52 | 1011.2 |
| 20260506011143 | 52 | 293 | 0.0 | 0.0 | 0.00 | 0.00 | 0.00 | 51 | 1011.5 |
| 20260506010142 | 52 | 270 | 4.0 | 9.0 | 0.00 | 0.00 | 0.00 | 51 | 1011.5 |
| 20260506005141 | 53 | 270 | 3.0 | 8.0 | 0.00 | 0.00 | 0.00 | 50 | 1011.2 |
| 20260506004140 | 53 | 270 | 5.0 | 6.0 | 0.00 | 0.00 | 0.00 | 50 | 1011.2 |
| 20260506002138 | 54 | 293 | 1.0 | 9.0 | 0.00 | 0.00 | 0.00 | 50 | 1010.8 |
| 20260506001137 | 54 | 270 | 0.0 | 3.0 | 0.00 | 0.00 | 0.00 | 50 | 1011.2 |
| 20260506000136 | 55 | 248 | 5.0 | 8.0 | 0.00 | 0.00 | 0.00 | 50 | 1011.2 |
| 20260505235135 | 55 | 338 | 3.0 | 6.0 | 0.00 | 0.00 | 0.00 | 50 | 1011.2 |
| 20260505234134 | 55 | 270 | 4.0 | 12.0 | 0.00 | 0.00 | 0.00 | 50 | 1011.2 |
| 20260505233133 | 56 | 270 | 4.0 | 8.0 | 0.00 | 0.00 | 0.00 | 50 | 1011.2 |
| 20260505232132 | 56 | 270 | 3.0 | 6.0 | 0.00 | 0.00 | 0.00 | 51 | 1011.2 |
| 20260505231132 | 56 | 293 | 5.0 | 7.0 | 0.00 | 0.00 | 0.00 | 53 | 1011.2 |
| 20260505230130 | 55 | 270 | 2.0 | 4.0 | 0.00 | 0.00 | 0.00 | 54 | 1010.8 |
| 20260505225129 | 56 | 270 | 4.0 | 13.0 | 0.00 | 0.00 | 0.00 | 54 | 1011.5 |
| 20260505224129 | 56 | 248 | 7.0 | 3.0 | 0.00 | 0.00 | 0.00 | 55 | 1011.5 |
| 20260505223127 | 56 | 270 | 4.0 | 7.0 | 0.00 | 0.00 | 0.00 | 56 | 1011.5 |
| 20260505222126 | 56 | 270 | 0.0 | 8.0 | 0.00 | 0.00 | 0.00 | 55 | 1011.5 |
| 20260505221125 | 57 | 315 | 4.0 | 10.0 | 0.00 | 0.00 | 0.00 | 53 | 1011.5 |
| 20260505220124 | 58 | 270 | 0.0 | 9.0 | 0.00 | 0.00 | 0.00 | 51 | 1011.5 |
| 20260505215123 | 59 | 293 | 2.0 | 7.0 | 0.00 | 0.00 | 0.00 | 49 | 1011.9 |
| 20260505214122 | 59 | 293 | 13.0 | 11.0 | 0.00 | 0.00 | 0.00 | 50 | 1011.2 |
| 20260505213122 | 59 | 270 | 3.0 | 6.0 | 0.00 | 0.00 | 0.00 | 50 | 1011.2 |
| 20260505212120 | 60 | 293 | 0.0 | 6.0 | 0.00 | 0.00 | 0.00 | 50 | 1011.5 |
| 20260505211120 | 61 | 225 | 0.0 | 10.0 | 0.00 | 0.00 | 0.00 | 48 | 1012.2 |
| 20260505203115 | 63 | 203 | 6.0 | 10.0 | 0.00 | 0.00 | 0.00 | 48 | 1011.9 |
| 20260505201114 | 63 | 248 | 4.0 | 10.0 | 0.00 | 0.00 | 0.00 | 50 | 1011.9 |
| 20260505200347 | 62 | 315 | 4.0 | 12.0 | 0.00 | 0.00 | 0.00 | 52 | 1011.9 |
| 20260505200112 | 62 | 315 | 4.0 | 12.0 | 0.00 | 0.00 | 0.00 | 52 | 1011.9 |
| 20260505195112 | 61 | 270 | 5.0 | 9.0 | 0.00 | 0.00 | 0.00 | 54 | 1011.9 |
| 20260505194110 | 62 | 270 | 4.0 | 7.0 | 0.00 | 0.00 | 0.00 | 53 | 1012.2 |
| 20260505193348 | 61 | 203 | 0.0 | 11.0 | 0.00 | 0.00 | 0.00 | 55 | 1012.2 |
| 20260505193109 | 61 | 203 | 0.0 | 11.0 | 0.00 | 0.00 | 0.00 | 55 | 1012.2 |
| 20260505191107 | 60 | 270 | 0.0 | 8.0 | 0.00 | 0.00 | 0.00 | 51 | 1012.5 |
| 20260505190106 | 61 | 270 | 9.0 | 15.0 | 0.00 | 0.00 | 0.00 | 47 | 1012.5 |
| 20260505185105 | 62 | 248 | 1.0 | 7.0 | 0.00 | 0.00 | 0.00 | 46 | 1012.5 |
| 20260505184104 | 63 | 293 | 3.0 | 12.0 | 0.00 | 0.00 | 0.00 | 45 | 1012.5 |
| 20260505183104 | 63 | 203 | 4.0 | 4.0 | 0.00 | 0.00 | 0.00 | 48 | 1012.2 |
| 20260505182102 | 62 | 248 | 6.0 | 5.0 | 0.00 | 0.00 | 0.00 | 48 | 1012.5 |
| 20260505181101 | 61 | 225 | 0.0 | 4.0 | 0.00 | 0.00 | 0.00 | 52 | 1012.5 |
| 20260505180355 | 59 | 158 | 0.0 | 2.0 | 0.00 | 0.00 | 0.00 | 53 | 1012.9 |
| 20260505180100 | 59 | 158 | 0.0 | 2.0 | 0.00 | 0.00 | 0.00 | 53 | 1012.9 |
| 20260505174058 | 57 | 248 | 0.0 | 3.0 | 0.00 | 0.00 | 0.00 | 55 | 1012.9 |
| 20260505172056 | 55 | 158 | 0.0 | 5.0 | 0.00 | 0.00 | 0.00 | 58 | 1012.9 |
| 20260505171055 | 53 | 315 | 0.0 | 0.0 | 0.00 | 0.00 | 0.00 | 60 | 1013.2 |
| 20260505170333 | 52 | 248 | 2.0 | 3.0 | 0.00 | 0.00 | 0.00 | 59 | 1013.2 |
| 20260505170054 | 52 | 248 | 2.0 | 3.0 | 0.00 | 0.00 | 0.00 | 59 | 1013.2 |
| 20260505165053 | 51 | 293 | 0.0 | 0.0 | 0.00 | 0.00 | 0.00 | 58 | 1013.2 |
| 20260505164053 | 51 | 270 | 0.0 | 0.0 | 0.00 | 0.00 | 0.00 | 59 | 1013.2 |
| 20260505163336 | 50 | 270 | 0.0 | 0.0 | 0.00 | 0.00 | 0.00 | 60 | 1013.5 |
| 20260505163052 | 50 | 270 | 0.0 | 0.0 | 0.00 | 0.00 | 0.00 | 60 | 1013.5 |
| 20260505162051 | 50 | 270 | 0.0 | 0.0 | 0.00 | 0.00 | 0.00 | 61 | 1013.5 |
| 20260505161049 | 50 | 270 | 0.0 | 2.0 | 0.00 | 0.00 | 0.00 | 62 | 1013.9 |
| 20260505153142 | 49 | 270 | 1.0 | 0.0 | 0.00 | 0.00 | 0.00 | 61 | 1013.9 |
| 20260505153045 | 49 | 270 | 1.0 | 0.0 | 0.00 | 0.00 | 0.00 | 61 | 1013.9 |
| 20260505152045 | 49 | 293 | 0.0 | 2.0 | 0.00 | 0.00 | 0.00 | 61 | 1013.9 |
| 20260505151043 | 49 | 270 | 0.0 | 0.0 | 0.00 | 0.00 | 0.00 | 61 | 1014.6 |
| 20260505150317 | 49 | 293 | 0.0 | 0.0 | 0.00 | 0.00 | 0.00 | 60 | 1014.6 |
| 20260505125029 | 49 | 270 | 0.0 | 0.0 | 0.00 | 0.00 | 0.00 | 47 | 1013.9 |
| 20260505124028 | 49 | 270 | 0.0 | 0.0 | 0.00 | 0.00 | 0.00 | 47 | 1014.2 |
| 20260505123343 | 49 | 270 | 0.0 | 0.0 | 0.00 | 0.00 | 0.00 | 47 | 1013.9 |
| 20260505123027 | 49 | 270 | 0.0 | 0.0 | 0.00 | 0.00 | 0.00 | 47 | 1013.9 |
| 20260505122133 | 49 | 270 | 0.0 | 3.0 | 0.00 | 0.00 | 0.00 | 46 | 1013.9 |
| 20260505122026 | 49 | 270 | 0.0 | 3.0 | 0.00 | 0.00 | 0.00 | 46 | 1013.9 |
| 20260505121026 | 49 | 270 | 0.0 | 4.0 | 0.00 | 0.00 | 0.00 | 46 | 1013.9 |
| 20260505120108 | 50 | 293 | 0.0 | 0.0 | 0.00 | 0.00 | 0.00 | 44 | 1013.9 |
| 20260505120025 | 50 | 293 | 0.0 | 0.0 | 0.00 | 0.00 | 0.00 | 44 | 1013.9 |
| 20260505115023 | 50 | 293 | 0.0 | 2.0 | 0.00 | 0.00 | 0.00 | 44 | 1013.5 |
| 20260505114022 | 50 | 315 | 0.0 | 3.0 | 0.00 | 0.00 | 0.00 | 44 | 1013.5 |
| 20260505113409 | 50 | 293 | 4.0 | 4.0 | 0.00 | 0.00 | 0.00 | 43 | 1013.9 |
| 20260505113021 | 50 | 293 | 4.0 | 4.0 | 0.00 | 0.00 | 0.00 | 43 | 1013.9 |
| 20260505112020 | 50 | 270 | 0.0 | 4.0 | 0.00 | 0.00 | 0.00 | 43 | 1013.5 |
| 20260505111020 | 50 | 315 | 0.0 | 4.0 | 0.00 | 0.00 | 0.00 | 43 | 1013.9 |
| 20260505110225 | 50 | 293 | 0.0 | 0.0 | 0.00 | 0.00 | 0.00 | 42 | 1013.9 |
| 20260505102014 | 50 | 293 | 0.0 | 0.0 | 0.00 | 0.00 | 0.00 | 39 | 1013.2 |
| 20260505100013 | 51 | 248 | 0.0 | 5.0 | 0.00 | 0.00 | 0.00 | 38 | 1013.5 |
| 20260505093010 | 51 | 248 | 10.0 | 13.0 | 0.00 | 0.00 | 0.00 | 39 | 1012.5 |
| 20260505092058 | 51 | 270 | 5.0 | 12.0 | 0.00 | 0.00 | 0.00 | 39 | 1012.5 |
| 20260505092009 | 51 | 270 | 5.0 | 12.0 | 0.00 | 0.00 | 0.00 | 39 | 1012.5 |
| 20260505091007 | 52 | 248 | 14.0 | 20.0 | 0.00 | 0.00 | 0.00 | 39 | 1012.5 |
| 20260505090007 | 52 | 293 | 12.0 | 15.0 | 0.00 | 0.00 | 0.00 | 38 | 1012.5 |
| 20260505085006 | 52 | 270 | 7.0 | 13.0 | 0.00 | 0.00 | 0.00 | 38 | 1012.9 |
| 20260505084005 | 52 | 270 | 11.0 | 14.0 | 0.00 | 0.00 | 0.00 | 37 | 1013.2 |
| 20260505083042 | 53 | 270 | 9.0 | 11.0 | 0.00 | 0.00 | 0.00 | 37 | 1013.2 |
| 20260505083003 | 53 | 270 | 9.0 | 11.0 | 0.00 | 0.00 | 0.00 | 37 | 1013.2 |
| 20260505082003 | 53 | 248 | 9.0 | 18.0 | 0.00 | 0.00 | 0.00 | 38 | 1013.2 |
| 20260505081001 | 53 | 248 | 12.0 | 15.0 | 0.00 | 0.00 | 0.00 | 38 | 1013.2 |
| 20260505080031 | 53 | 270 | 10.0 | 14.0 | 0.00 | 0.00 | 0.00 | 38 | 1013.5 |
| 20260505080000 | 53 | 270 | 10.0 | 14.0 | 0.00 | 0.00 | 0.00 | 38 | 1013.5 |
| 20260505075000 | 53 | 270 | 6.0 | 13.0 | 0.00 | 0.00 | 0.00 | 38 | 1013.5 |
| 20260505073958 | 53 | 248 | 10.0 | 12.0 | 0.00 | 0.00 | 0.00 | 38 | 1013.5 |
| 20260505072958 | 53 | 270 | 20.0 | 11.0 | 0.00 | 0.00 | 0.00 | 38 | 1013.5 |
| 20260505071956 | 54 | 248 | 5.0 | 10.0 | 0.00 | 0.00 | 0.00 | 38 | 1013.5 |
| 20260505070956 | 54 | 270 | 3.0 | 11.0 | 0.00 | 0.00 | 0.00 | 38 | 1013.5 |
| 20260505065955 | 54 | 293 | 0.0 | 10.0 | 0.00 | 0.00 | 0.00 | 38 | 1013.5 |
| 20260505064954 | 54 | 203 | 9.0 | 13.0 | 0.00 | 0.00 | 0.00 | 37 | 1013.5 |
| 20260505063953 | 55 | 225 | 7.0 | 14.0 | 0.00 | 0.00 | 0.00 | 37 | 1013.5 |
| 20260505062952 | 55 | 270 | 0.0 | 14.0 | 0.00 | 0.00 | 0.00 | 37 | 1013.5 |
| 20260505061951 | 55 | 270 | 2.0 | 13.0 | 0.00 | 0.00 | 0.00 | 36 | 1013.9 |
| 20260505060950 | 55 | 270 | 4.0 | 11.0 | 0.00 | 0.00 | 0.00 | 35 | 1013.9 |
| 20260505060410 | 56 | 270 | 0.0 | 11.0 | 0.00 | 0.00 | 0.00 | 35 | 1014.2 |
| 20260505060037 | 56 | 270 | 0.0 | 11.0 | 0.00 | 0.00 | 0.00 | 35 | 1014.2 |
| 20260505055949 | 56 | 270 | 0.0 | 11.0 | 0.00 | 0.00 | 0.00 | 35 | 1014.2 |
| 20260505054948 | 56 | 248 | 3.0 | 16.0 | 0.00 | 0.00 | 0.00 | 33 | 1013.9 |
| 20260505053947 | 57 | 270 | 0.0 | 6.0 | 0.00 | 0.00 | 0.00 | 33 | 1013.9 |
| 20260505053351 | 57 | 180 | 0.0 | 6.0 | 0.00 | 0.00 | 0.00 | 32 | 1013.9 |
| 20260505053030 | 57 | 180 | 0.0 | 6.0 | 0.00 | 0.00 | 0.00 | 32 | 1013.9 |
| 20260505052946 | 57 | 180 | 0.0 | 6.0 | 0.00 | 0.00 | 0.00 | 32 | 1013.9 |
| 20260505052032 | 57 | 248 | 7.0 | 9.0 | 0.00 | 0.00 | 0.00 | 31 | 1013.9 |
| 20260505051945 | 57 | 248 | 7.0 | 9.0 | 0.00 | 0.00 | 0.00 | 31 | 1013.9 |
| 20260505050241 | 58 | 270 | 0.0 | 14.0 | 0.00 | 0.00 | 0.00 | 30 | 1013.9 |
| 20260505040317 | 59 | 315 | 10.0 | 10.0 | 0.00 | 0.00 | 0.00 | 29 | 1013.9 |
| 20260505035936 | 59 | 315 | 10.0 | 10.0 | 0.00 | 0.00 | 0.00 | 29 | 1013.9 |
| 20260505035823 | 61 | 270 | 5.0 | 8.0 | 0.00 | 0.00 | 0.00 | 27 | 1012.9 |
| 20260505035802 | 62 | 315 | 3.0 | 7.0 | 0.00 | 0.00 | 0.00 | 27 | 1012.9 |